(171081) = 2001 LJ9 = 2005 EG185

Discovered at Siding Spring on 2005-03-09 by Siding Spring Survey.

Orbit

Orbit type: Main Belt

Note: WebGL enabled browser required.

epoch2023-09-13.0
epoch JD2460200.5
perihelion date2023-07-16.20638
perihelion JD2460141.70638
argument of perihelion (°)9.78015
ascending node (°)228.83633
inclination (°)12.74935
eccentricity0.1366208
perihelion distance (AU)2.3387107
Tisserand w.r.t. Jupiter3.3
ΔV w.r.t. Earth (km/sec)10.4
semimajor axis (AU)2.7087876
mean anomaly (°)12.99785
mean daily motion (°/day)0.22107590
aphelion distance (AU)3.079
period (years)4.46
P-vector [x]-0.52391716
P-vector [y]-0.79563745
P-vector [z]-0.30409187
Q-vector [x]0.83540910
Q-vector [y]-0.54962721
Q-vector [z]-0.00125349
absolute magnitude15.93
phase slope0.15
uncertainty0
referenceMPEC 2024-A12
observations used443
oppositions17
arc length (days)8996
first opposition used1998
last opposition used2023
residual rms (arc-secs)0.71
perturbers coarse indicatorM-v
perturbers precise indicator003Ek
first observation date used1998-11-21.0
last observation date used2023-07-09.0
computer nameMPCLINUX
JD of orbit computation2456847.735216
perihelion JD uncertainty (days)1.1778E-04
argument of perihelion uncertainty (°)3.7309E-05
ascending node uncertainty (°)2.6308E-05
inclination uncertainty (°)1.0543E-05
eccentricity uncertainty 9.6288E-08
perihelion distance uncertainty (AU)2.6607E-07
Minimum Orbit Intersection Distances (in AU)
for orbit epoch: 2460200.5, reference: E2024-A12
Mercury1.87821
Venus1.61418
Earth1.32719
Mars0.78066
Jupiter1.92067
Saturn6.01344
Uranus15.8727
Neptune26.7906

Observations

454 total observations over interval: 1998 11 21.21258 – 2023 07 09.207402
These data are available for download (format description).

Date (UT) J2000 RA J2000 Dec Magn Location Ref
1998 11 21.21258 02 57 15.39 +16 21 15.3 21.2 V 691 – Steward Observatory, Kitt Peak-Spacewatch MPS 155313
1998 11 21.24365 02 57 13.83 +16 21 02.1 20.4 V 691 – Steward Observatory, Kitt Peak-Spacewatch MPS 155313
1998 11 21.28446 02 57 11.72 +16 20 45.1 20.5 V 691 – Steward Observatory, Kitt Peak-Spacewatch MPS 155313
2001 06 15.23141 17 12 37.16 -11 09 11.1 19.5   704 – Lincoln Laboratory ETS, New Mexico MPS 31832
2001 06 15.24322 17 12 36.51 -11 09 07.4 19.0   704 – Lincoln Laboratory ETS, New Mexico MPS 31832
2001 06 15.25494 17 12 35.82 -11 09 04.0 19.5   704 – Lincoln Laboratory ETS, New Mexico MPS 31832
2001 06 15.26726 17 12 35.13 -11 08 59.2 19.5   704 – Lincoln Laboratory ETS, New Mexico MPS 31832
2001 06 15.27890 17 12 34.53 -11 08 55.1 19.4   704 – Lincoln Laboratory ETS, New Mexico MPS 31832
2001 06 21.24164 17 07 37.13 -10 36 14.6 19.0   704 – Lincoln Laboratory ETS, New Mexico MPS 31832
2001 06 21.25421 17 07 36.45 -10 36 10.4 19.5   704 – Lincoln Laboratory ETS, New Mexico MPS 31832
2001 06 21.26792 17 07 35.88 -10 36 06.3 20.0   704 – Lincoln Laboratory ETS, New Mexico MPS 31832
2001 06 21.29354 17 07 34.56 -10 35 58.0 19.9   704 – Lincoln Laboratory ETS, New Mexico MPS 31832
2002 10 03.31947 00 36 51.67 +16 21 09.5 20.3   644 – Palomar Mountain/NEAT MPS 155313
2002 10 03.34063 00 36 50.63 +16 20 59.4 20.7   644 – Palomar Mountain/NEAT MPS 155313
2002 10 03.36182 00 36 49.56 +16 20 49.2 20.0   644 – Palomar Mountain/NEAT MPS 155313
2005 03 09.69633 12 42 54.00 -19 42 31.6 20.5 R E12 – Siding Spring Survey MPS 129307
2005 03 09.70644 12 42 53.65 -19 42 28.0 19.8 R E12 – Siding Spring Survey MPS 129307
2005 03 09.71662 12 42 53.36 -19 42 26.0 19.2 R E12 – Siding Spring Survey MPS 129307
2005 03 09.72688 12 42 52.97 -19 42 24.1 19.5 R E12 – Siding Spring Survey MPS 129308
2005 03 13.34013 12 40 48.54 -19 26 21.5 18.6 R 699 – Lowell Observatory-LONEOS MPS 138463
2005 03 13.35639 12 40 47.90 -19 26 17.1   699 – Lowell Observatory-LONEOS MPS 138463
2005 03 13.36492 12 40 47.57 -19 26 14.4 19.4 V 691 – Steward Observatory, Kitt Peak-Spacewatch MPS 129308
2005 03 13.37264 12 40 47.29 -19 26 11.9   699 – Lowell Observatory-LONEOS MPS 138463
2005 03 13.37562 12 40 47.15 -19 26 11.2 19.4 V 691 – Steward Observatory, Kitt Peak-Spacewatch MPS 129308
2005 03 13.38610 12 40 46.75 -19 26 08.1 19.5 V 691 – Steward Observatory, Kitt Peak-Spacewatch MPS 129308
2005 03 13.38890 12 40 46.51 -19 26 06.6   699 – Lowell Observatory-LONEOS MPS 138463
2005 04 14.24779 12 17 58.65 -14 50 34.5 19.5 R 703 – Catalina Sky Survey MPS 155313
2005 04 14.25843 12 17 58.32 -14 50 27.7 18.6 R 703 – Catalina Sky Survey MPS 155313
2005 04 14.26906 12 17 57.89 -14 50 19.6 18.5 R 703 – Catalina Sky Survey MPS 155313
2005 04 14.28439 12 17 57.19 -14 50 09.5 18.2 R 703 – Catalina Sky Survey MPS 155313
2005 05 06.20762 12 09 07.95 -10 59 47.4 19.2 V 703 – Catalina Sky Survey MPS 155313
2005 05 06.21513 12 09 07.92 -10 59 44.0 18.9 V 703 – Catalina Sky Survey MPS 155313
2005 05 06.22258 12 09 07.77 -10 59 38.9 19.2 V 703 – Catalina Sky Survey MPS 155313
2005 05 06.23001 12 09 07.70 -10 59 35.6 18.9 V 703 – Catalina Sky Survey MPS 155313
2006 08 27.15482 21 41 19.17 +07 06 09.1 19.7 R 699 – Lowell Observatory-LONEOS MPS 177055
2006 08 27.17296 21 41 18.19 +07 06 00.0   699 – Lowell Observatory-LONEOS MPS 177055
2006 08 27.19113 21 41 17.35 +07 05 55.6   699 – Lowell Observatory-LONEOS MPS 177055
2006 08 27.20927 21 41 16.70 +07 05 50.3   699 – Lowell Observatory-LONEOS MPS 177055
2006 09 19.17706 21 27 24.91 +04 12 57.1 20.0 V 703 – Catalina Sky Survey MPS 179349
2006 09 19.18694 21 27 24.55 +04 12 52.2 19.6 V 703 – Catalina Sky Survey MPS 179349
2006 09 19.19687 21 27 24.48 +04 12 47.4 19.8 V 703 – Catalina Sky Survey MPS 179349
2006 09 19.20688 21 27 24.19 +04 12 44.3 20.4 V 703 – Catalina Sky Survey MPS 179349
2007 08 24.43558 03 49 49.26 +22 05 52.3   691 – Steward Observatory, Kitt Peak-Spacewatch MPS 213725
2007 08 24.44822 03 49 49.76 +22 05 52.2   691 – Steward Observatory, Kitt Peak-Spacewatch MPS 213725
2007 08 24.46083 03 49 50.29 +22 05 52.4   691 – Steward Observatory, Kitt Peak-Spacewatch MPS 213725
2007 10 17.42120 03 56 25.94 +20 09 46.9 20.2 V G96 – Mt. Lemmon Survey MPS 220544
2007 10 17.42773 03 56 25.69 +20 09 45.2 20.4 V G96 – Mt. Lemmon Survey MPS 220544
2007 10 17.43428 03 56 25.51 +20 09 43.4 20.6 V G96 – Mt. Lemmon Survey MPS 220544
2007 10 17.44089 03 56 25.33 +20 09 41.9 20.6 V G96 – Mt. Lemmon Survey MPS 220544
2007 10 30.30138 03 48 12.94 +19 01 31.2 20.3 V 691 – Steward Observatory, Kitt Peak-Spacewatch MPS 223457
2007 10 30.31902 03 48 12.17 +19 01 24.9 20.3 V 691 – Steward Observatory, Kitt Peak-Spacewatch MPS 223457
2007 10 30.33665 03 48 11.31 +19 01 19.2 20.4 V 691 – Steward Observatory, Kitt Peak-Spacewatch MPS 223457
2007 10 30.43097 03 48 06.94 +19 00 45.4 20.1 V G96 – Mt. Lemmon Survey MPS 223457
2007 10 30.44390 03 48 06.33 +19 00 40.8 20.5 V G96 – Mt. Lemmon Survey MPS 223457
2007 10 30.45692 03 48 05.72 +19 00 35.8 20.0 V G96 – Mt. Lemmon Survey MPS 223457
2007 10 30.46974 03 48 05.14 +19 00 31.7 19.9 V G96 – Mt. Lemmon Survey MPS 223457
2007 11 14.25598 03 35 40.17 +17 28 11.6 20.1   704 – Lincoln Laboratory ETS, New Mexico MPS 226873
2007 11 14.26845 03 35 39.51 +17 28 05.8 20.2   704 – Lincoln Laboratory ETS, New Mexico MPS 226873
2007 11 14.28095 03 35 38.79 +17 28 00.8 20.8   704 – Lincoln Laboratory ETS, New Mexico MPS 226873
2007 11 14.29345 03 35 38.18 +17 27 57.2 20.5   704 – Lincoln Laboratory ETS, New Mexico MPS 226873
2007 11 14.30594 03 35 37.46 +17 27 51.9 20.1   704 – Lincoln Laboratory ETS, New Mexico MPS 226873
2007 12 05.20879 03 17 54.62 +15 16 23.0 20.2   704 – Lincoln Laboratory ETS, New Mexico MPS 230881
2007 12 05.23425 03 17 53.45 +15 16 13.6 20.9   704 – Lincoln Laboratory ETS, New Mexico MPS 230881
2007 12 05.24764 03 17 52.86 +15 16 08.3 20.6   704 – Lincoln Laboratory ETS, New Mexico MPS 230881
2009 02 01.25463 09 01 07.24 -03 36 34.3 20.1 V 703 – Catalina Sky Survey MPS 276086
2009 02 01.26071 09 01 06.88 -03 36 31.1 19.9 V 703 – Catalina Sky Survey MPS 276086
2009 02 01.26674 09 01 06.56 -03 36 31.8 19.5 V 703 – Catalina Sky Survey MPS 276086
2009 02 01.27285 09 01 06.24 -03 36 30.8 20.1 V 703 – Catalina Sky Survey MPS 276086
2009 02 19.22513 08 45 36.61 -02 21 31.3 19.6 V 703 – Catalina Sky Survey MPS 277447
2009 02 19.23124 08 45 36.36 -02 21 29.1 19.2 V 703 – Catalina Sky Survey MPS 277447
2009 02 19.23721 08 45 36.03 -02 21 29.3 18.7 V 703 – Catalina Sky Survey MPS 277447
2009 02 19.24332 08 45 35.82 -02 21 25.9 19.5 V 703 – Catalina Sky Survey MPS 277447
2011 09 21.28343 01 20 17.16 +19 16 57.1 21.2 V 703 – Catalina Sky Survey MPS 392265
2011 09 21.29811 01 20 16.54 +19 16 53.0 20.5 V 703 – Catalina Sky Survey MPS 392265
2011 09 21.30549 01 20 16.15 +19 16 49.3 20.2 V 703 – Catalina Sky Survey MPS 392265
2011 10 21.24323 00 57 19.26 +15 37 05.1 19.5 V G96 – Mt. Lemmon Survey MPS 395967
2011 10 21.25018 00 57 18.93 +15 37 01.5 19.7 V G96 – Mt. Lemmon Survey MPS 395967
2011 10 21.25716 00 57 18.61 +15 36 57.6 19.8 V G96 – Mt. Lemmon Survey MPS 395967
2011 10 21.26411 00 57 18.28 +15 36 54.1 20.0 V G96 – Mt. Lemmon Survey MPS 395967
2011 10 21.30940 00 57 16.351 +15 36 30.93 20.4 w F51 – Pan-STARRS 1, Haleakala MPS 397770
2011 10 21.32324 00 57 15.715 +15 36 23.79 20.3 w F51 – Pan-STARRS 1, Haleakala MPS 397770
2011 10 21.33706 00 57 15.057 +15 36 16.36 20.4 w F51 – Pan-STARRS 1, Haleakala MPS 397770
2011 10 21.35091 00 57 14.403 +15 36 09.29 20.5 w F51 – Pan-STARRS 1, Haleakala MPS 397770
2011 10 28.23753 00 52 20.85 +14 35 42.2 19.9 V G96 – Mt. Lemmon Survey MPS 397770
2011 10 28.24447 00 52 20.60 +14 35 38.1 20.1 V G96 – Mt. Lemmon Survey MPS 397770
2011 10 28.25145 00 52 20.31 +14 35 34.6 20.2 V G96 – Mt. Lemmon Survey MPS 397770
2011 10 28.25841 00 52 19.99 +14 35 30.9 20.2 V G96 – Mt. Lemmon Survey MPS 397770
2013 01 17.27463 06 03 39.260 +09 08 39.49 20.2 r F51 – Pan-STARRS 1, Haleakala MPS 451915
2013 01 17.28800 06 03 38.645 +09 08 39.66 20.2 r F51 – Pan-STARRS 1, Haleakala MPS 451915
